Regional Weather Roundup
Issued by NWS Charleston, WV

Current Version | Previous Version | Text Only | Print | Product List | Glossary On
Versions: 1 2 3 4 5 6 7 8 9 10 11 12 13 14 15 16 17 18 19 20 21 22 23 24 25 26 27 28 29 30 31 32 33 34 35 36 37 38 39 40 41 42 43 44 45 46 47 48 49 50
000
ASUS41 KRLX 220210
RWRRLX
West Virginia Regional Weather Roundup
National Weather Service Charleston WV
1000 PM EDT SUN SEP 21 2014

Note: "fair" indicates few or no clouds below 12,000 feet with no
significant weather and/or obstructions to visibility.

WVZ003-220300-
Northern Panhandle of West Virginia

CITY           SKY/WX    TMP DP  RH WIND       PRES   REMARKS
WHEELING       CLEAR     60  47  61 W15G22    29.87R
$$

WVZ009-220300-
Northwest West Virginia

CITY           SKY/WX    TMP DP  RH WIND       PRES   REMARKS
PARKERSBURG    CLEAR     63  47  55 NW9       29.94R
$$

WVZ006-220300-
Western West Virginia

CITY           SKY/WX    TMP DP  RH WIND       PRES   REMARKS
HUNTINGTON     CLEAR     65  48  54 NW8G17    29.94R
$$

WVZ015-220300-
West Central West Virginia

CITY           SKY/WX    TMP DP  RH WIND       PRES   REMARKS
CHARLESTON     PTCLDY    67  47  48 N9        29.93R
$$

WVZ031-220300-
North Central West Virginia

CITY           SKY/WX    TMP DP  RH WIND       PRES   REMARKS
CLARKSBURG     PTCLDY    62  48  60 NW7       29.89R
MORGANTOWN     CLEAR     66  45  46 W7        29.88R
$$

WVZ035-042-045-220300-
South Central West Virginia

CITY           SKY/WX    TMP DP  RH WIND       PRES   REMARKS
BECKLEY        CLEAR     60  54  80 NW6       29.97R
BLUEFIELD      CLOUDY    65  58  78 NW14G20   29.99R
LEWISBURG      PTCLDY    66  47  51 NW3       29.94R
$$

WVZ047-220300-
Northern Mountains of West Virginia

CITY           SKY/WX    TMP DP  RH WIND       PRES   REMARKS
ELKINS         CLEAR     64  46  52 W13       29.91R
$$

WVZ052-220300-
Eastern Panhandle of West Virginia

CITY           SKY/WX    TMP DP  RH WIND       PRES   REMARKS
MARTINSBURG    PTCLDY    75  55  49 W23       29.74R
PETERSBURG     PTCLDY    71  45  39 NW8G20    29.83R
$$


USA.gov is the U.S. government's official web portal to all federal, state and local government web resources and services.